Location: InfinitysEdge Observatory-FL
(28.1530°N, 80.6520°W)
Time: 09:37:09
(UTC-05:00)

Hubble Space Telescope - Visible Passes

Search period start: 18 December 2017 00:00
Search period end: 28 December 2017 00:00
Orbit: 537 x 541 km, 28.5° (Epoch: 17 December)

Date Brightness Start Highest point End Pass type
(mag) Time Alt. Az. Time Alt. Az. Time Alt. Az.
18 Dec 1.9 18:03:04 10° W 18:07:00 43° SSW 18:10:57 10° SE visible
18 Dec 3.5 19:45:48 10° WSW 19:47:49 13° SSW 19:48:33 13° SSW visible
19 Dec 2.3 17:52:56 10° W 17:56:44 35° SSW 18:00:32 10° SE visible
